Location: Forst
(46.9333°N, 15.4333°E)
Time: 21:45:21
(UTC+00:00)

N. Korean satellite - Pass Details

Date: 29 September 2021
Orbit: 450 x 495 km, 97.3° (Epoch: 23 October)

Event Time Altitude Azimuth Distance (km) Brightness Sun altitude
Rises 03:13:11 0° 31° (NNE) 2,543 11.0 -17.9°
Reaches altitude 10° 03:16:06 10° 58° (ENE) 1,668 10.4 -17.4°
Maximum altitude 03:18:01 14° 91° (E) 1,444 10.0 -17.1°
Drops below altitude 10° 03:19:57 10° 123° (ESE) 1,672 9.9 -16.8°
Sets 03:22:52 0° 150° (SSE) 2,555 10.4 -16.3°
